1290038433653,3.19632
1290038493653,3.19586
1290038553652,3.20513
1290038613652,3.17648
1290038673652,3.20687
1290038733652,3.20806
1290038793653,3.20665
1290038853653,3.19367
1290038913653,3.15662
1290038973653,3.18606
1290039033653,3.20786
1290039093653,3.18309
1290039153653,3.17520
1290039213653,3.21218
1290039273653,3.18532
1290039333653,3.21997
1290039393653,3.21844
1290039453653,3.19176
1290039513653,3.18964
1290039573653,3.20577
1290039633653,3.19505
1290039693653,3.21822
1290039753653,3.21464
1290039813653,3.19384
1290039873653,3.16435
1290039933652,3.17734
1290039993652,3.18073
1290040053652,3.17859
1290040113653,3.18304
1290040173653,3.19432
1290040233653,3.19706
1290040293653,3.19829
1290040353653,3.18563
1290040413653,3.21469
1290040473653,3.18691
1290040533653,3.19420
1290040593653,3.24440
1290040653653,3.18951
1290040713653,3.19240
1290040773653,3.21124
1290040833653,3.19136
1290040893653,3.18309
1290040953653,3.18945
1290041013653,3.19273
1290041073653,3.17922
1290041133653,3.19711
1290041193653,3.18826
1290041253652,3.20091
1290041313652,3.17996
1290041373652,3.20506
1290041433652,3.18491
1290041493653,3.19287
1290041553653,3.16739
1290041613653,3.19336
1290041673653,3.19002
1290041733653,3.21499
1290041793653,3.20293
1290041853653,3.19429
1290041913653,3.20488
1290041973653,3.17384
1290042033662,3.18893
1290042093662,3.19577
1290042153662,3.18144
1290042213662,3.18456
1290042273662,3.19717
1290042333662,3.16920
1290042393662,3.21005
1290042453662,3.21425
1290042513662,3.21546
1290042573662,3.22342
1290042633662,3.17198
1290042693662,3.21547
1290042753662,3.23108
1290042813662,3.23446
1290042873662,3.21554
1290042933662,3.19178
1290042993662,3.19795
1290043053662,3.20800
1290043113662,3.19470
1290043173662,3.20714
1290043233662,3.19236
1290043293662,3.19643
1290043353662,3.19706
1290043413662,3.21609
1290043473662,3.22057
1290043533662,3.19348
1290043593662,3.21458
1290043653662,3.19929
1290043713662,3.20412
1290043773662,3.20683
1290043833662,3.21036
1290043893662,3.20607
1290043953662,3.19753
1290044013662,3.23289
1290044073662,3.19845
1290044133662,3.21373
1290044193662,3.21393
1290044253662,3.19964
1290044313662,3.22468
1290044373662,3.22650
1290044433662,3.22197
1290044493662,3.19195
1290044553662,3.22496
1290044613662,3.19620
1290044673662,3.21309
1290044733662,3.23987
1290044793662,3.20729
1290044853662,3.22994
1290044913662,3.22026
1290044973662,3.21058
1290045033662,3.22153
1290045093662,3.19311
1290045153662,3.20651
1290045213662,3.19041
1290045273662,3.18109
1290045333662,3.17742
1290045393662,3.19927
1290045453662,3.17017
1290045513662,3.19844
1290045573662,3.15060
1290045633672,3.22058
1290045693672,3.23168
1290045753672,3.20756
1290045813672,3.22421
1290045873672,3.21521
1290045933672,3.21324
1290045993672,3.21805
1290046053672,3.22319
1290046113672,3.21621
1290046173672,3.19090
1290046233672,3.19532
1290046293672,3.21134
1290046353672,3.19983
1290046413672,3.20527
1290046473672,3.16796
1290046533672,3.20441
1290046593672,3.19131
1290046653672,3.20223
1290046713672,3.20724
1290046773672,3.16996
1290046833672,3.15802
1290046893672,3.18154
1290046953672,3.19029
1290047013672,3.17462
1290047073672,3.16582
1290047133672,3.18302
1290047193672,3.18513
1290047253672,3.18546
1290047313672,3.19571
1290047373672,3.23223
1290047433672,3.19695
1290047493672,3.23432
1290047553672,3.17858
1290047613672,3.15455
1290047673672,3.17308
1290047733672,3.17289
1290047793672,3.17868
1290047853672,3.24402
1290047913672,3.19626
1290047973672,3.16937
1290048033672,3.18407
1290048093672,3.18521
1290048153672,3.18608
1290048213672,3.19392
1290048273672,3.19377
1290048333672,3.23940
1290048393672,3.21017
1290048453672,3.19424
1290048513672,3.19678
1290048573672,3.18987
1290048633672,3.21068
1290048693672,3.19823
1290048753672,3.19146
1290048813672,3.20759
1290048873672,3.18533
1290048933672,3.19775
1290048993672,3.22536
1290049053672,3.20474
1290049113672,3.20071
1290049173672,3.21225
1290049233682,3.19814
1290049293682,3.20256
1290049353682,3.19773
1290049413682,3.19320
1290049473681,3.18318
1290049533682,3.18567
1290049593682,3.22218
1290049653682,3.18091
1290049713682,3.22721
1290049773682,3.18838
1290049833682,3.20045
1290049893682,3.20558
1290049953682,3.18808
1290050013682,3.15774
1290050073682,3.19914
1290050133682,3.19141
1290050193681,3.18905
1290050253681,3.19674
1290050313681,3.21392
1290050373681,3.18768
1290050433681,3.22083
1290050493681,3.18878
1290050553682,3.20438
1290050613682,3.19958
1290050673682,3.20949
1290050733682,3.17878
1290050793682,3.20355
1290050853681,3.21265
1290050913682,3.20869
1290050973682,3.20665
1290051033682,3.16800
1290051093682,3.20836
1290051153682,3.19876
1290051213682,3.21398
1290051273682,3.18723
1290051333682,3.21819
1290051393682,3.22916
1290051453682,3.18587
1290051513681,3.25306
1290051573681,3.17949
1290051633681,3.22735
1290051693681,3.21300
1290051753681,3.20326
1290051813681,3.21600
1290051873682,3.21840
1290051933682,3.19263
1290051993682,3.19829
1290052053682,3.21185
1290052113682,3.20260
1290052173681,3.22614
1290052233682,3.22877
1290052293682,3.25348
1290052353682,3.20055
1290052413682,3.21314
1290052473682,3.19045
1290052533682,3.20958
1290052593682,3.23864
1290052653682,3.19038
1290052713682,3.20792
1290052773682,3.20426
1290052833691,3.20400
1290052893691,3.19893
1290052953691,3.18098
1290053013691,3.22362
1290053073691,3.16708
1290053133691,3.17710
1290053193691,3.19837
1290053253691,3.20686
1290053313691,3.22752
1290053373691,3.20715
1290053433691,3.18650
1290053493691,3.19670
1290053553691,3.22288
1290053613691,3.16522
1290053673691,3.20062
1290053733691,3.23613
1290053793691,3.19509
1290053853691,3.20033
1290053913691,3.21463
1290053973691,3.22302
1290054033691,3.19736
1290054093691,3.20001
1290054153691,3.17618
1290054213691,3.21275
1290054273691,3.20254
1290054333691,3.20922
1290054393691,3.19681
1290054453691,3.20231
1290054513691,3.22320
1290054573691,3.21976
1290054633691,3.22111
1290054693691,3.20135
1290054753691,3.21826
1290054813691,3.22785
1290054873691,3.21139
1290054933691,3.19879
1290054993691,3.21675
1290055053691,3.23216
1290055113691,3.21208
1290055173691,3.39389
1290055233691,3.22019
1290055293691,3.22884
1290055353691,3.20148
1290055413691,3.18044
1290055473691,3.21886
1290055533691,3.19558
1290055593691,3.20964
1290055653691,3.18981
1290055713691,3.18977
1290055773691,3.18273
1290055833691,3.19402
1290055893691,3.21740
1290055953691,3.21410
1290056013691,3.18980
1290056073691,3.20780
1290056133691,3.18973
1290056193691,3.23959
1290056253691,3.21761
1290056313691,3.22042
1290056373691,3.22496
1290056433701,3.21648
1290056493701,3.24112
1290056553701,3.16040
1290056613701,3.18584
1290056673701,3.18689
1290056733701,3.24674
1290056793701,3.19180
1290056853701,3.20613
1290056913701,3.22506
1290056973701,3.18683
1290057033701,3.23256
1290057093701,3.18710
1290057153701,3.20909
1290057213701,3.21738
1290057273701,3.17028
1290057333701,3.22799
1290057393701,3.19431
1290057453701,3.18114
1290057513701,3.23413
1290057573701,3.23620
1290057633701,3.23202
1290057693701,3.23772
1290057753701,3.24290
1290057813701,3.22634
1290057873701,3.23272
1290057933701,3.20744
1290057993701,3.23644
1290058053701,3.23203
1290058113701,3.24153
1290058173701,3.21824
1290058233701,3.19391
1290058293701,3.20433
1290058353701,3.22088
1290058413701,3.19298
1290058473701,3.21090
1290058533701,3.21653
1290058593701,3.20864
1290058653701,3.22345
1290058713701,3.23645
1290058773701,3.25008
1290058833701,3.21071
1290058893701,3.22458
1290058953701,3.23405
1290059013701,3.23316
1290059073701,3.23423
1290059133701,3.22668
1290059193701,3.25606
1290059253701,3.22719
1290059313701,3.22070
1290059373701,3.21645
1290059433701,3.23120
1290059493701,3.24944
1290059553701,3.20356
1290059613701,3.20455
1290059673701,3.21860
1290059733701,3.17777
1290059793701,3.22153
1290059853701,3.22814
1290059913701,3.21152
1290059973701,3.21214
1290060033711,3.19991
1290060093711,3.23816
1290060153711,3.22042
1290060213711,3.20861
1290060273711,3.22095
1290060333711,3.23401
1290060393711,3.22994
1290060453711,3.21108
1290060513711,3.23471
1290060573711,3.20776
1290060633711,3.21194
1290060693711,3.20214
1290060753711,3.22224
1290060813711,3.20564
1290060873711,3.23061
1290060933711,3.20145
1290060993711,3.19613
1290061053711,3.18824
1290061113711,3.20121
1290061173711,3.21742
1290061233711,3.20600
1290061293711,3.23456
1290061353711,3.19936
1290061413711,3.20095
1290061473711,3.22485
1290061533711,3.25888
1290061593711,3.19926
1290061653711,3.20897
1290061713711,3.19530
1290061773711,3.20740
1290061833711,3.23193
1290061893711,3.24204
1290061953711,3.19742
1290062013711,3.21108
1290062073711,3.22384
1290062133711,3.22326
1290062193711,3.22181
1290062253711,3.21882
1290062313711,3.21991
1290062373711,3.22790
1290062433711,3.22360
1290062493711,3.25241
1290062553711,3.23060
1290062613711,3.21973
1290062673711,3.20880
1290062733711,3.15587
1290062793711,3.21641
1290062853711,3.20676
1290062913711,3.15926
1290062973711,3.21548
1290063033711,3.21083
1290063093711,3.21500
1290063153711,3.22077
1290063213711,3.26902
1290063273711,3.27677
1290063333711,3.24555
1290063393711,3.22889
1290063453711,3.20550
1290063513711,3.21495
1290063573711,3.23750
1290063633721,3.22838
1290063693721,3.22538
1290063753721,3.21363
1290063813721,3.21528
1290063873721,3.21650
1290063933721,3.21798
1290063993721,3.23063
1290064053721,3.25800
1290064113721,3.25944
1290064173721,3.21461
1290064233721,3.23468
1290064293721,3.24739
1290064353721,3.25611
1290064413721,3.21356
1290064473721,3.22996
1290064533721,3.23422
1290064593721,3.20921
1290064653721,3.21440
1290064713721,3.21977
1290064773721,3.20833
1290064833721,3.23204
1290064893721,3.21649
1290064953721,3.23010
1290065013721,3.20863
1290065073721,3.21934
1290065133721,3.21062
1290065193721,3.24496
1290065253721,3.20636
1290065313721,3.18204
1290065373721,3.21291
1290065433721,3.18649
1290065493721,3.18378
1290065553721,3.18453
1290065613721,3.20575
1290065673721,3.18069
1290065733721,3.16871
1290065793721,3.22181
1290065853721,3.35299
1290065913721,3.27297
1290065973721,3.20637
1290066033721,3.23945
1290066093721,3.23716
1290066153721,3.20513
1290066213721,3.21098
1290066273721,3.22356
1290066333721,3.17814
1290066393721,3.20121
1290066453721,3.19710
1290066513721,3.22966
1290066573721,3.19198
1290066633721,3.19588
1290066693721,3.19685
1290066753721,3.22031
1290066813721,3.16807
1290066873721,3.20953
1290066933721,3.23844
1290066993721,3.20710
1290067053721,3.18818
1290067113721,3.21331
1290067173721,3.19321
1290067233731,3.17528
1290067293731,3.17593
1290067353731,3.19549
1290067413731,3.24343
1290067473731,3.21693
1290067533731,3.19684
1290067593731,3.22971
1290067653731,3.23926
1290067713731,3.21975
1290067773731,3.23497
1290067833731,3.21489
1290067893731,3.19812
1290067953731,3.22035
1290068013731,3.21439
1290068073731,3.23365
1290068133731,3.21439
1290068193731,3.22002
1290068253731,3.19472
1290068313731,3.21671
1290068373731,3.20456
1290068433731,3.22776
1290068493731,3.19427
1290068553731,3.20905
1290068613731,3.19588
1290068673731,3.19768
1290068733731,3.18547
1290068793731,3.18539
1290068853731,3.15973
1290068913731,3.17183
1290068973731,3.14511
1290069033731,3.15311
1290069093731,3.18531
1290069153731,3.20959
1290069213731,3.23482
1290069273731,3.24477
1290069333731,3.20613
1290069393731,3.19977
1290069453731,3.24141
1290069513731,3.22100
1290069573731,3.21790
1290069633731,3.19648
1290069693731,3.19360
1290069753731,3.19551
1290069813731,3.20987
1290069873731,3.18887
1290069933731,3.21481
1290069993731,3.20092
1290070053731,3.21884
1290070113731,3.21532
1290070173731,3.21431
1290070233731,3.20195
1290070293731,3.21717
1290070353731,3.19779
1290070413731,3.20123
1290070473731,3.18439
1290070533731,3.19091
1290070593731,3.23003
1290070653731,3.20506
1290070713731,3.18039
1290070773731,3.19846
1290070833742,3.20097
1290070893742,3.18882
1290070953742,3.19967
1290071013742,3.21401
1290071073742,3.20063
1290071133742,3.16968
1290071193742,3.19698
1290071253742,3.16561
1290071313742,3.17067
1290071373742,3.19916
1290071433742,3.20394
1290071493742,3.21516
1290071553742,3.18010
1290071613742,3.15775
1290071673742,3.19325
1290071733742,3.18879
1290071793742,3.14677
1290071853742,3.15905
1290071913742,3.17393
1290071973742,3.17804
1290072033742,3.14810
1290072093742,3.17788
1290072153742,3.18095
1290072213742,3.16486
1290072273742,3.20849
1290072333742,3.19555
1290072393742,3.21231
1290072453742,3.22883
1290072513742,3.16350
1290072573742,3.18078
1290072633742,3.20035
1290072693742,3.16325
1290072753742,3.17206
1290072813742,3.15399
1290072873742,3.17732
1290072933742,3.18544
1290072993742,3.14397
1290073053742,3.15435
1290073113742,3.17248
1290073173742,3.20947
1290073233742,3.18156
1290073293742,3.16357
1290073353742,3.16469
1290073413742,3.17089
1290073473742,3.19433
1290073533742,3.18138
1290073593742,3.18088
1290073653742,3.21617
1290073713742,3.17519
1290073773742,3.17309
1290073833742,3.20048
1290073893742,3.19460
1290073953742,3.20533
1290074013742,3.20259
1290074073742,3.17986
1290074133742,3.19520
1290074193742,3.17192
1290074253742,3.21829
1290074313742,3.19512
1290074373742,3.14673
1290074433753,3.19202
1290074493753,3.20305
1290074553753,3.18201
1290074613753,3.19291
1290074673753,3.20530
1290074733753,3.20957
1290074793753,3.20998
1290074853753,3.21523
1290074913753,3.20640
1290074973753,3.21872
1290075033753,3.19759
1290075093753,3.20354
1290075153753,3.20964
1290075213753,3.19905
1290075273753,3.18960
1290075333753,3.18830
1290075393753,3.19045
1290075453753,3.19667
1290075513753,3.19363
1290075573753,3.18664
1290075633753,3.18300
1290075693753,3.17035
1290075753753,3.20599
1290075813753,3.18806
1290075873753,3.19887
1290075933753,3.18930
1290075993753,3.18562
1290076053753,3.20649
1290076113753,3.18449
1290076173753,3.17655
1290076233753,3.20577
1290076293753,3.19237
1290076353753,3.19960
1290076413753,3.18149
1290076473753,3.17533
1290076533753,3.19698
1290076593753,3.20352
1290076653753,3.22660
1290076713753,3.17818
1290076773753,3.20761
1290076833753,3.20159
1290076893753,3.18680
1290076953753,3.18347
1290077013753,3.18479
1290077073753,3.17545
1290077133753,3.19440
1290077193753,3.19977
1290077253753,3.19854
1290077313753,3.20429
1290077373753,3.18530
1290077433753,3.18053
1290077493753,3.20011
1290077553753,3.23252
1290077613753,3.19961
1290077673753,3.18808
1290077733753,3.20877
1290077793753,3.20265
1290077853753,3.21569
1290077913753,3.20827
1290077973753,3.21368
1290078033764,3.19864
1290078093764,3.18653
1290078153764,3.20545
1290078213764,3.21080
1290078273764,3.19826
1290078333764,3.17320
1290078393764,3.18013
1290078453764,3.18577
1290078513764,3.21155
1290078573764,3.20833
1290078633764,3.18341
1290078693764,3.20509
1290078753764,3.16568
1290078813764,3.15147
1290078873764,3.20536
1290078933764,3.19985
1290078993764,3.21274
1290079053764,3.19575
1290079113764,3.19878
1290079173764,3.20940
1290079233764,3.22550
1290079293764,3.18780
1290079353764,3.20390
1290079413764,3.19272
1290079473764,3.21283
1290079533764,3.17896
1290079593764,3.19270
1290079653764,3.19755
1290079713764,3.19941
1290079773764,3.19114
1290079833764,3.18882
1290079893764,3.19414
1290079953764,3.20139
1290080013764,3.18607
1290080073764,3.14567
1290080133764,3.12722
1290080193764,3.21250
1290080253764,3.20607
1290080313764,3.19539
1290080373764,3.17617
1290080433764,3.20591
1290080493764,3.20118
1290080553764,3.16337
1290080613764,3.19879
1290080673764,3.18761
1290080733764,3.21612
1290080793764,3.19790
1290080853764,3.19718
1290080913764,3.19458
1290080973764,3.21607
1290081033764,3.20819
1290081093764,3.18374
1290081153764,3.20586
1290081213764,3.18769
1290081273764,3.22304
1290081333764,3.23117
1290081393764,3.20403
1290081453764,3.22318
1290081513764,3.21795
1290081573764,3.22164
1290081633800,3.21349
1290081693800,3.23748
1290081753800,3.17818
1290081813800,3.18193
1290081873800,3.21565
1290081933800,3.22302
1290081993800,3.19655
1290082053800,3.22236
1290082113800,3.20251
1290082173800,3.24796
1290082233800,3.23775
1290082293800,3.24172
1290082353800,3.24161
1290082413800,3.22142
1290082473800,3.23028
1290082533800,3.22922
1290082593800,3.22035
1290082653800,3.25834
1290082713800,3.22664
1290082773800,3.21949
1290082833800,3.22781
1290082893800,3.22417
1290082953800,3.19640
1290083013800,3.19615
1290083073800,3.22965
1290083133800,3.20992
1290083193800,3.19794
1290083253800,3.23187
1290083313800,3.19324
1290083373800,3.21096
1290083433800,3.22780
1290083493800,3.24294
1290083553800,3.24268
1290083613800,3.23652
1290083673800,3.22216
1290083733800,3.24322
1290083793800,3.22020
1290083853800,3.22538
1290083913800,3.22241
1290083973800,3.22907
1290084033800,3.23163
1290084093800,3.23880
1290084153800,3.22778
1290084213800,3.21985
1290084273800,3.21645
1290084333800,3.23150
1290084393800,3.24294
1290084453800,3.21991
1290084513800,3.19402
1290084573800,3.19178
1290084633800,3.18574
1290084693800,3.21105
1290084753800,3.23751
1290084813800,3.22359
1290084873800,3.20866
1290084933800,3.21698
1290084993800,3.22250
1290085053800,3.23444
1290085113800,3.22239
1290085173800,3.26636
1290085233812,3.20564
1290085293812,3.23659
1290085353812,3.23096
1290085413812,3.23043
1290085473812,3.22922
1290085533812,3.24387
1290085593812,3.24974
1290085653812,3.23564
1290085713812,3.25943
1290085773812,3.21913
1290085833812,3.24878
1290085893812,3.21840
1290085953812,3.21965
1290086013812,3.24995
1290086073812,3.19835
1290086133812,3.21019
1290086193812,3.21580
1290086253812,3.23136
1290086313812,3.23060
1290086373812,3.21185
1290086433812,3.23210
1290086493812,3.22689
1290086553812,3.25560
1290086613812,3.23120
1290086673812,3.20833
1290086733812,3.23156
1290086793812,3.22280
1290086853812,3.24930
1290086913812,3.22509
1290086973812,3.21402
1290087033812,3.22142
1290087093812,3.23476
1290087153812,3.22528
1290087213812,3.23186
1290087273812,3.21483
1290087333812,3.18497
1290087393812,3.17355
1290087453812,3.21765
1290087513812,3.23278
1290087573812,3.22644
1290087633812,3.20192
1290087693812,3.17396
1290087753812,3.22158
1290087813812,3.22952
1290087873812,3.18019
1290087933812,3.21311
1290087993812,3.21120
1290088053812,3.18275
1290088113812,3.17362
1290088173812,3.23170
1290088233812,3.26219
1290088293812,3.23127
1290088353812,3.21640
1290088413812,3.20843
1290088473812,3.23052
1290088533812,3.23051
1290088593812,3.19518
1290088653812,3.23170
1290088713812,3.18260
1290088773812,3.23495
1290088833824,3.19346
1290088893824,3.20932
1290088953824,3.23534
1290089013824,3.21272
1290089073824,3.20289
1290089133824,3.21274
1290089193824,3.22469
1290089253824,3.19473
1290089313824,3.23446
1290089373824,3.21403
1290089433824,3.20849
1290089493824,3.23093
1290089553824,3.21608
1290089613824,3.21330
1290089673824,3.21393
1290089733824,3.21220
1290089793824,3.25097
1290089853824,3.20882
1290089913824,3.23461
1290089973824,3.20947
1290090033824,3.24028
1290090093824,3.20308
1290090153824,3.19287
1290090213824,3.20672
1290090273824,3.19207
1290090333824,3.22852
1290090393824,3.20675
1290090453824,3.17550
1290090513824,3.20224
1290090573824,3.23029
1290090633824,3.20155
1290090693824,3.21373
1290090753824,3.21650
1290090813824,3.16805
1290090873824,3.20581
1290090933824,3.19597
1290090993824,3.17725
1290091053824,3.16630
1290091113824,3.17708
1290091173824,3.20220
1290091233824,3.17652
1290091293824,3.18451
1290091353824,3.17316
1290091413824,3.16146
1290091473824,3.16306
1290091533824,3.20778
1290091593824,3.19331
1290091653824,3.24548
1290091713824,3.19180
1290091773824,3.20464
1290091833824,3.21283
1290091893824,3.19760
1290091953824,3.15719
1290092013824,3.21329
1290092073824,3.17937
1290092133824,3.18833
1290092193824,3.17607
1290092253824,3.16306
1290092313824,3.20157
1290092373824,3.17764
1290092433837,3.16914
1290092493837,3.20686
1290092553837,3.18409
1290092613837,3.17159
1290092673837,3.16422
1290092733837,3.17784
1290092793837,3.20384
1290092853837,3.16491
1290092913837,3.15696
1290092973837,3.17352
1290093033837,3.20309
1290093093837,3.19375
1290093153837,3.19290
1290093213837,3.17194
1290093273837,3.14871
1290093333837,3.17417
1290093393837,3.18347
1290093453837,3.15855
1290093513837,3.18491
1290093573837,3.17439
1290093633837,3.13772
1290093693837,3.20653
1290093753837,3.17989
1290093813837,3.18868
1290093873837,3.18552
1290093933837,3.17062
1290093993837,3.17208
1290094053837,3.14167
1290094113837,3.18040
1290094173837,3.23453
1290094233837,3.20998
1290094293837,3.19087
1290094353837,3.16887
1290094413837,3.20494
1290094473837,3.13938
1290094533837,3.17248
1290094593837,3.18264
1290094653837,3.18013
1290094713837,3.20748
1290094773837,3.19156
1290094833837,3.21042
1290094893837,3.20012
1290094953837,3.18821
1290095013837,3.16934
1290095073837,3.20033
1290095133837,3.18596
1290095193837,3.20138
1290095253837,3.18273
1290095313837,3.17854
1290095373837,3.18354
1290095433837,3.16834
1290095493837,3.18218
1290095553837,3.16127
1290095613837,3.18666
1290095673837,3.18194
1290095733837,3.14871
1290095793837,3.19090
1290095853837,3.19154
1290095913837,3.18828
1290095973837,3.18754
1290096033849,3.17987
1290096093849,3.18505
1290096153849,3.16519
1290096213849,3.15745
1290096273849,3.15495
1290096333849,3.17917
1290096393849,3.15523
1290096453849,3.17849
1290096513849,3.19311
1290096573849,3.19077
1290096633849,3.16315
1290096693849,3.15659
1290096753849,3.16231
1290096813849,3.17706
1290096873849,3.16418
1290096933849,3.17123
1290096993849,3.17247
1290097053849,3.15254
1290097113849,3.16430
1290097173849,3.18633
1290097233849,3.17214
1290097293849,3.11626
1290097353849,3.15275
1290097413849,3.14785
1290097473849,3.13369
1290097533849,3.13478
1290097593849,3.15825
1290097653849,3.11203
1290097713849,3.16930
1290097773849,3.12201
1290097833849,3.14538
1290097893849,3.12855
1290097953849,3.12210
1290098013849,3.13675
1290098073849,3.14268
1290098133849,3.16839
1290098193849,3.15760
1290098253849,3.12942
1290098313849,3.15343
1290098373849,3.15125
1290098433849,3.13909
1290098493849,3.14129
1290098553849,3.14171
1290098613849,3.13348
1290098673849,3.14158
1290098733849,3.13634
1290098793849,3.13181
1290098853849,3.13788
1290098913849,3.10695
1290098973849,3.14671
1290099033849,3.13500
1290099093849,3.10066
1290099153849,3.13538
1290099213849,3.14672
1290099273849,3.13989
1290099333849,3.14029
1290099393849,3.11329
1290099453849,3.10079
1290099513849,3.11526
1290099573849,3.12410
1290099633861,3.13011
1290099693861,3.15656
1290099753861,3.12838
1290099813861,3.14445
1290099873861,3.09805
1290099933861,3.12712
1290099993861,3.12567
1290100053861,3.14395
1290100113861,3.11634
1290100173861,3.13766
1290100233861,3.10724
1290100293861,3.08985
1290100353861,3.09939
1290100413861,3.12248
1290100473861,3.10978
1290100533861,3.14992
1290100593861,3.11664
1290100653861,3.14796
1290100713861,3.11878
1290100773861,3.14125
1290100833861,3.11220
1290100893861,3.15724
1290100953861,3.15237
1290101013861,3.10970
1290101073861,3.10746
1290101133861,3.11500
1290101193861,3.08989
1290101253861,3.12650
1290101313861,3.10601
1290101373861,3.09854
1290101433861,3.13370
1290101493861,3.11271
1290101553861,3.10638
1290101613861,3.11105
1290101673861,3.09650
1290101733861,3.11984
1290101793861,3.14771
1290101853861,3.13281
1290101913861,3.12187
1290101973861,3.10935
1290102033861,3.11563
1290102093861,3.10786
1290102153861,3.10249
1290102213861,3.09018
1290102273861,3.15278
1290102333861,3.13421
1290102393861,3.11810
1290102453861,3.11849
1290102513861,3.13711
1290102573861,3.09139
1290102633861,3.07510
1290102693861,3.09049
1290102753861,3.07570
1290102813861,3.10365
1290102873861,3.09965
1290102933861,3.08951
1290102993861,3.10772
1290103053861,3.07034
1290103113861,3.08305
1290103173861,3.10026
1290103233873,3.09455
1290103293873,3.08875
1290103353873,3.10755
1290103413873,3.13953
1290103473873,3.12120
1290103533873,3.11268
1290103593873,3.09100
1290103653873,3.12611
1290103713873,3.09677
1290103773873,3.10027